GW0346 Weather Reports


time (UTC)temp
C
wind
direction
speed
KPH
gust
KPH
rain 1hr
cm
rain 24hr
cm
rain mn
cm
humidity
%
barometer
mb
20260506125010 13 0 0.0 0.0 0.00 0.00 0.00 87 1018.9
20260506124528 13 0 0.0 0.0 0.00 0.00 0.00 87 1018.9
20260506124009 13 0 0.0 0.0 0.00 0.00 0.00 87 1018.9
20260506123510 13 0 0.0 0.0 0.00 0.00 0.00 87 1018.8
20260506123028 13 0 0.0 0.0 0.00 0.00 0.00 87 1018.9
20260506122508 13 0 0.0 0.0 0.00 0.00 0.00 87 1018.7
20260506122011 13 0 0.0 0.0 0.00 0.00 0.00 86 1018.8
20260506121530 13 0 0.0 0.0 0.00 0.00 0.00 86 1018.8
20260506121012 13 0 0.0 0.0 0.00 0.00 0.00 86 1018.7
20260506120511 13 0 0.0 0.0 0.00 0.00 0.00 86 1018.7
20260506120037 13 0 0.0 0.0 0.00 0.00 0.00 86 1018.6
20260506115519 13 0 0.0 0.0 0.00 0.00 0.00 86 1018.6
20260506115011 13 0 0.0 0.0 0.00 0.00 0.00 86 1018.7
20260506114528 13 0 0.0 0.0 0.00 0.00 0.00 87 1018.8
20260506114013 13 0 0.0 0.0 0.00 0.00 0.00 88 1018.7
20260506113512 13 0 0.0 1.6 0.00 0.00 0.00 88 1018.5
20260506113030 13 0 0.0 1.6 0.00 0.00 0.00 89 1018.6
20260506112512 13 0 0.0 0.0 0.00 0.00 0.00 90 1018.6
20260506112013 13 0 0.0 0.0 0.00 0.00 0.00 90 1018.5
20260506111529 13 0 0.0 0.0 0.00 0.00 0.00 90 1018.4
20260506111010 13 0 0.0 0.0 0.00 0.00 0.00 90 1018.4
20260506110513 13 0 0.0 0.0 0.00 0.00 0.00 90 1018.3
20260506110033 13 0 0.0 0.0 0.00 0.00 0.00 89 1018.3
20260506105511 13 0 0.0 0.0 0.00 0.00 0.00 89 1018.2
20260506105011 13 0 0.0 0.0 0.00 0.00 0.00 89 1018.2
20260506104528 13 0 0.0 0.0 0.00 0.00 0.00 88 1018.2
20260506104011 13 0 0.0 0.0 0.00 0.00 0.00 88 1018.1
20260506103510 13 0 0.0 0.0 0.00 0.00 0.00 88 1018.1
20260506103035 13 0 0.0 0.0 0.00 0.00 0.00 87 1018.1
20260506102513 13 0 0.0 0.0 0.00 0.00 0.00 87 1018.2
20260506102012 13 0 0.0 1.6 0.00 0.00 0.00 87 1018.0
20260506101538 13 0 0.0 1.6 0.00 0.00 0.00 87 1017.9
20260506101014 13 0 0.0 1.6 0.00 0.00 0.00 87 1018.0
20260506100512 13 0 0.0 0.0 0.00 0.00 0.00 87 1017.9
20260506100032 13 0 0.0 0.0 0.00 0.00 0.00 87 1017.9
20260506095514 13 0 0.0 0.0 0.00 0.00 0.00 87 1017.9
20260506095012 13 0 0.0 0.0 0.00 0.00 0.00 87 1017.9
20260506094529 13 0 0.0 0.0 0.00 0.00 0.00 87 1017.9
20260506094011 13 0 0.0 0.0 0.00 0.00 0.00 87 1017.9
20260506093515 13 0 0.0 0.0 0.00 0.00 0.00 87 1017.9
20260506093028 13 0 0.0 0.0 0.00 0.00 0.00 86 1017.9
20260506092510 13 0 0.0 0.0 0.00 0.00 0.00 86 1017.9
20260506092012 13 0 0.0 0.0 0.00 0.00 0.00 86 1017.9
20260506091528 13 0 0.0 0.0 0.00 0.00 0.00 86 1017.9
20260506091012 13 0 0.0 0.0 0.00 0.00 0.00 86 1018.0
20260506090511 13 0 0.0 0.0 0.00 0.00 0.00 87 1017.9
20260506090029 13 0 0.0 0.0 0.00 0.00 0.00 87 1017.9
20260506085509 13 0 0.0 0.0 0.00 0.03 0.00 87 1018.0
20260506085009 13 0 0.0 0.0 0.00 0.03 0.00 87 1017.9
20260506084535 13 0 0.0 0.0 0.00 0.03 0.00 86 1017.9
20260506084008 13 0 0.0 0.0 0.00 0.03 0.00 86 1017.9
20260506083514 13 0 0.0 0.0 0.00 0.03 0.00 86 1017.9
20260506083033 13 0 0.0 0.0 0.00 0.03 0.00 86 1017.9
20260506082509 13 0 0.0 0.0 0.00 0.03 0.00 86 1017.9
20260506082013 13 0 0.0 0.0 0.00 0.03 0.00 87 1017.9
20260506081530 13 0 0.0 0.0 0.00 0.03 0.00 87 1018.0
20260506081017 13 0 0.0 0.0 0.00 0.03 0.00 86 1017.9
20260506080509 13 0 0.0 0.0 0.00 0.03 0.00 86 1017.9
20260506073512 14 0 0.0 0.0 0.00 0.03 0.00 84 1017.8
20260506073029 14 0 0.0 0.0 0.00 0.03 0.00 84 1017.7
20260506072510 14 0 0.0 0.0 0.00 0.03 0.00 84 1017.6
20260506072019 14 0 0.0 0.0 0.00 0.03 0.00 83 1017.7
20260506071528 14 0 0.0 0.0 0.00 0.03 0.00 84 1017.6
20260506071012 14 0 0.0 0.0 0.00 0.03 0.00 85 1017.5
20260506070510 14 0 0.0 0.0 0.00 0.03 0.00 85 1017.5
20260506062512 14 0 0.0 1.6 0.00 0.08 0.03 84 1017.1
20260506062011 15 0 0.0 1.6 0.00 0.08 0.03 85 1017.0
20260506061529 15 0 0.0 1.6 0.00 0.08 0.03 84 1017.0
20260506061011 15 0 0.0 1.6 0.00 0.08 0.03 84 1016.8
20260506060514 15 0 0.0 0.0 0.00 0.08 0.03 86 1016.8
20260506051012 15 0 0.0 0.0 0.00 0.30 0.03 82 1016.3
20260506050515 15 0 0.0 0.0 0.00 0.30 0.03 83 1016.1
20260506045010 15 0 0.0 0.0 0.00 0.43 0.03 83 1016.2
20260506044527 15 0 0.0 0.0 0.00 0.43 0.03 83 1016.1
20260506044011 15 0 0.0 0.0 0.00 0.43 0.03 83 1016.1
20260506043510 15 0 0.0 0.0 0.00 0.43 0.03 83 1016.0
20260506043030 15 0 0.0 0.0 0.00 0.43 0.03 83 1016.0
20260506042511 15 0 0.0 0.0 0.00 0.43 0.03 82 1016.0
20260506042014 15 0 0.0 0.0 0.00 0.43 0.03 82 1015.9
20260506041528 15 0 0.0 0.0 0.00 0.43 0.03 82 1015.8
20260506041010 15 0 0.0 0.0 0.00 0.43 0.03 81 1015.8
20260506040511 15 0 0.0 0.0 0.00 0.43 0.03 81 1015.8
20260506040037 15 0 0.0 0.0 0.00 0.43 0.03 82 1015.6
20260506035510 15 0 0.0 0.0 0.00 1.17 0.03 80 1015.6
20260506035010 15 0 0.0 0.0 0.00 1.17 0.03 80 1015.6
20260506034529 15 0 0.0 0.0 0.00 1.17 0.03 80 1015.5
20260506034011 15 0 0.0 0.0 0.00 1.17 0.03 80 1015.5
20260506033512 15 0 0.0 0.0 0.00 1.17 0.03 79 1015.5
20260506033033 15 0 0.0 0.0 0.00 1.17 0.03 80 1015.6
20260506032511 15 0 0.0 0.0 0.00 1.17 0.03 80 1015.5
20260506032009 15 0 0.0 0.0 0.00 1.17 0.03 80 1015.5
20260506031530 15 0 0.0 0.0 0.00 1.17 0.03 79 1015.5
20260506031012 15 0 0.0 0.0 0.00 1.17 0.03 79 1015.4
20260506030513 15 0 0.0 0.0 0.00 1.17 0.03 79 1015.3
20260506030029 15 0 0.0 0.0 0.00 1.17 0.03 79 1015.2
20260506025510 15 0 0.0 0.0 0.00 1.45 0.03 79 1015.1
20260506025010 15 0 0.0 0.0 0.00 1.45 0.03 78 1015.0
20260506024530 16 0 0.0 0.0 0.00 1.45 0.03 79 1015.0
20260506024017 16 0 0.0 0.0 0.00 1.45 0.03 79 1014.8
20260506023515 15 0 0.0 0.0 0.00 1.45 0.03 79 1014.9
20260506023030 15 0 0.0 0.0 0.00 1.45 0.03 78 1014.9
20260506022514 15 0 0.0 0.0 0.00 1.45 0.03 78 1014.9
20260506022016 16 0 0.0 1.6 0.00 1.45 0.03 78 1014.7
20260506021534 16 0 0.0 1.6 0.00 1.45 0.03 77 1014.5
20260506021012 16 0 0.0 1.6 0.00 1.45 0.03 77 1014.4
20260506020511 16 0 0.0 1.6 0.00 1.45 0.03 77 1014.5
20260506020033 16 0 0.0 1.6 0.00 1.45 0.03 76 1014.5
20260506015511 16 0 0.0 1.6 0.00 1.73 0.03 77 1014.4
20260506015019 16 0 0.0 1.6 0.00 1.73 0.03 75 1014.5
20260506014528 16 0 0.0 4.8 0.00 1.73 0.03 76 1014.4
20260506014010 16 0 0.0 4.8 0.00 1.73 0.03 76 1014.4
20260506013511 16 0 0.0 4.8 0.00 1.73 0.03 76 1014.4
20260506013027 16 0 0.0 0.0 0.00 1.73 0.03 75 1014.4
20260506012511 16 0 0.0 0.0 0.00 1.73 0.03 76 1014.5
20260506012010 16 0 0.0 0.0 0.00 1.73 0.03 75 1014.4
20260506011531 16 0 0.0 0.0 0.00 1.73 0.03 74 1014.5
20260506011012 16 0 0.0 0.0 0.00 1.73 0.03 75 1014.4
20260506010513 16 0 0.0 1.6 0.00 1.73 0.03 75 1014.5
20260506010044 16 0 0.0 1.6 0.00 1.73 0.03 74 1014.5
20260506005511 16 0 0.0 3.2 0.00 1.88 0.03 74 1014.5
20260506005011 16 0 0.0 3.2 0.00 1.88 0.03 73 1014.4
20260506004530 16 0 0.0 3.2 0.00 1.88 0.03 72 1014.4
20260506004009 16 0 0.0 3.2 0.00 1.88 0.03 73 1014.3
20260506003513 16 0 0.0 3.2 0.00 1.88 0.03 74 1014.2
20260506003032 16 0 0.0 0.0 0.00 1.88 0.03 74 1014.3
20260506002512 16 0 0.0 1.6 0.00 1.88 0.03 73 1014.3
20260506002013 17 0 0.0 1.6 0.00 1.88 0.03 72 1014.2
20260506001527 17 0 0.0 1.6 0.00 1.88 0.03 74 1014.2
20260506001012 17 0 0.0 0.0 0.00 1.88 0.03 74 1014.2
20260506000511 17 0 0.0 0.0 0.00 1.88 0.03 74 1014.2
20260506000029 17 0 0.0 0.0 0.00 1.88 0.03 73 1014.2
20260505235509 16 0 0.0 1.6 0.00 2.11 0.03 74 1014.1
20260505235010 16 0 0.0 1.6 0.00 2.11 0.03 74 1014.2
20260505234541 16 0 0.0 1.6 0.00 2.11 0.03 74 1014.2
20260505234012 16 0 0.0 1.6 0.00 2.11 0.03 74 1014.2
20260505233510 16 0 0.0 1.6 0.00 2.11 0.03 75 1014.2
20260505233035 16 0 0.0 4.8 0.00 2.11 0.03 73 1014.1
20260505232513 16 0 0.0 4.8 0.00 2.11 0.03 75 1014.1
20260505232010 16 0 0.0 4.8 0.00 2.11 0.03 75 1014.3
20260505231533 16 0 0.0 1.6 0.00 2.11 0.03 75 1014.2
20260505231012 16 0 0.0 3.2 0.00 2.11 0.03 75 1014.2
20260505230511 16 0 0.0 3.2 0.00 2.11 0.03 75 1014.3
20260505230029 16 0 0.0 1.6 0.00 2.11 0.03 76 1014.2
20260505225516 16 0 0.0 1.6 0.00 2.29 0.03 73 1014.3
20260505225011 16 0 0.0 4.8 0.00 2.29 0.03 73 1014.3
20260505224533 16 0 0.0 4.8 0.00 2.29 0.03 75 1014.2
20260505224012 16 360 0.0 4.8 0.00 2.29 0.03 74 1014.3
20260505223519 16 0 0.0 0.0 0.00 2.29 0.03 73 1014.3
20260505223028 16 0 0.0 1.6 0.00 2.29 0.03 73 1014.4
20260505222516 16 0 0.0 1.6 0.00 2.29 0.03 75 1014.4
20260505222012 16 0 0.0 1.6 0.00 2.29 0.03 74 1014.5
20260505221530 16 0 0.0 1.6 0.00 2.29 0.03 74 1014.5
20260505221016 16 0 0.0 1.6 0.00 2.29 0.03 76 1014.4
20260505220508 16 0 0.0 4.8 0.00 2.29 0.03 73 1014.6
20260505220029 16 0 0.0 6.4 0.00 2.29 0.03 76 1014.6
20260505215513 16 163 0.0 6.4 0.00 2.44 0.03 74 1014.6
20260505215011 16 0 0.0 6.4 0.00 2.44 0.03 75 1014.7
20260505214555 16 148 0.0 6.4 0.00 2.44 0.03 74 1014.7
20260505214014 16 184 0.0 6.4 0.00 2.44 0.03 74 1014.7
20260505213511 16 0 0.0 6.4 0.00 2.44 0.03 73 1014.7
20260505213028 16 0 0.0 3.2 0.00 2.44 0.03 74 1014.8
20260505212515 16 0 0.0 6.4 0.00 2.44 0.03 74 1014.8
20260505212012 16 0 0.0 6.4 0.00 2.44 0.03 73 1014.6
20260505211532 16 0 0.0 4.8 0.00 2.44 0.03 74 1014.8
20260505211011 16 254 0.0 8.0 0.00 2.44 0.03 73 1014.7
20260505210512 16 0 0.0 9.7 0.00 2.44 0.03 73 1014.7
20260505210028 16 268 0.0 9.7 0.00 2.44 0.03 74 1014.7
20260505205512 16 0 1.6 6.4 0.00 2.72 0.03 74 1014.5
20260505205012 16 0 0.0 6.4 0.00 2.72 0.03 73 1014.6
20260505204528 16 0 1.6 6.4 0.00 2.72 0.03 74 1014.6
20260505204017 16 0 0.0 4.8 0.00 2.72 0.03 72 1014.7
20260505203516 16 264 0.0 4.8 0.00 2.72 0.03 76 1014.6
20260505203036 16 0 0.0 4.8 0.00 2.72 0.03 75 1014.6
20260505202511 16 0 0.0 3.2 0.00 2.72 0.03 74 1014.6
20260505202013 16 0 0.0 6.4 0.00 2.72 0.03 74 1014.6
20260505201531 16 0 0.0 6.4 0.00 2.72 0.03 74 1014.8
20260505201010 16 0 0.0 4.8 0.00 2.72 0.03 76 1014.7
20260505200514 15 259 0.0 4.8 0.00 2.72 0.03 77 1014.8
20260505200029 15 0 0.0 4.8 0.00 2.72 0.03 76 1014.8
20260505195513 15 220 0.0 3.2 0.00 2.72 0.03 78 1014.8
20260505195010 15 0 0.0 4.8 0.00 2.72 0.03 77 1014.8
20260505194528 15 0 0.0 6.4 0.00 2.72 0.03 76 1014.8
20260505194009 15 161 0.0 6.4 0.00 2.72 0.03 75 1014.8
20260505193512 15 200 0.0 6.4 0.00 2.72 0.03 77 1014.9
20260505193031 15 0 0.0 4.8 0.00 2.72 0.03 78 1014.8
20260505192511 15 0 0.0 4.8 0.00 2.72 0.03 80 1015.0
20260505192013 15 0 0.0 1.6 0.00 2.72 0.03 79 1014.8
20260505191527 15 0 0.0 6.4 0.00 2.72 0.03 80 1014.9
20260505191011 15 0 0.0 8.0 0.00 2.72 0.03 81 1014.8
20260505190511 15 172 0.0 8.0 0.00 2.72 0.03 82 1014.7
20260505190028 14 0 0.0 4.8 0.00 2.72 0.03 81 1014.8
20260505185513 14 248 0.0 4.8 0.00 2.72 0.03 83 1014.9
20260505185012 13 0 0.0 3.2 0.00 2.72 0.03 82 1014.9
20260505184528 13 0 0.0 1.6 0.00 2.72 0.03 82 1014.8
20260505184009 14 0 0.0 1.6 0.00 2.72 0.03 83 1014.9
20260505183511 14 0 0.0 1.6 0.00 2.72 0.03 85 1014.8
20260505183030 13 0 0.0 1.6 0.00 2.72 0.03 84 1014.9
20260505182517 13 0 0.0 1.6 0.00 2.72 0.03 83 1014.7
20260505182018 13 0 0.0 1.6 0.00 2.72 0.03 84 1014.7
20260505181528 13 0 0.0 4.8 0.00 2.72 0.03 84 1014.6
20260505181009 13 0 0.0 4.8 0.00 2.72 0.03 83 1014.6
20260505180510 13 0 0.0 4.8 0.00 2.72 0.03 85 1014.7
20260505180051 13 192 0.0 3.2 0.00 2.72 0.03 85 1014.6
20260505175512 13 0 0.0 3.2 0.00 2.72 0.03 86 1014.6
20260505175015 13 241 0.0 3.2 0.00 2.72 0.03 84 1014.6
20260505174548 13 0 0.0 4.8 0.00 2.72 0.03 85 1014.5
20260505174010 13 0 0.0 4.8 0.00 2.72 0.03 85 1014.5
20260505173510 13 0 0.0 4.8 0.00 2.72 0.03 85 1014.5
20260505173034 13 0 0.0 4.8 0.00 2.72 0.03 87 1014.4
20260505172511 13 192 0.0 4.8 0.00 2.72 0.03 87 1014.5
20260505172013 13 0 0.0 4.8 0.00 2.72 0.03 88 1014.5
20260505171529 12 0 0.0 4.8 0.00 2.72 0.03 87 1014.6
20260505171011 12 232 0.0 3.2 0.00 2.72 0.03 88 1014.6
20260505170510 12 0 0.0 4.8 0.00 2.72 0.03 88 1014.6
20260505170029 12 0 1.6 6.4 0.00 2.72 0.03 89 1014.5
20260505165513 12 0 1.6 6.4 0.00 2.72 0.03 89 1014.6
20260505165009 12 200 0.0 4.8 0.00 2.72 0.03 89 1014.5
20260505164530 12 131 0.0 3.2 0.00 2.72 0.03 90 1014.5
20260505164010 12 0 0.0 4.8 0.00 2.72 0.03 90 1014.4
20260505163510 12 0 0.0 4.8 0.00 2.72 0.03 90 1014.4
20260505163028 12 234 0.0 4.8 0.00 2.72 0.03 91 1014.3
20260505162510 12 0 0.0 4.8 0.00 2.72 0.03 91 1014.3
20260505162013 12 0 0.0 3.2 0.00 2.72 0.03 91 1014.3
20260505161529 12 243 0.0 4.8 0.00 2.72 0.03 92 1014.2
20260505161012 11 0 0.0 4.8 0.00 2.72 0.03 91 1014.2
20260505160514 11 0 0.0 3.2 0.00 2.72 0.03 91 1014.3
20260505153030 11 0 0.0 3.2 0.00 2.72 0.03 94 1014.4
20260505152516 11 0 0.0 1.6 0.00 2.72 0.03 94 1014.3
20260505152012 10 0 0.0 3.2 0.00 2.72 0.03 94 1014.3
20260505151531 10 0 0.0 3.2 0.00 2.72 0.03 94 1014.2
20260505151013 10 0 0.0 1.6 0.00 2.72 0.03 95 1014.3
20260505150517 10 0 0.0 3.2 0.00 2.72 0.03 95 1014.2
20260505140510 10 0 0.0 1.6 0.00 2.72 0.03 96 1013.7